TimeEDT,TemperatureF,Dew PointF,Humidity,Sea Level PressureIn,VisibilityMPH,Wind Direction,Wind SpeedMPH,Gust SpeedMPH,PrecipitationIn,Events,Conditions,WindDirDegrees,DateUTC
12:14 AM,33.8,28.4,81,29.90,10.0,West,6.9,-,N/A,,Overcast,260,2013-10-24 04:14:00
12:34 AM,33.8,28.4,81,29.89,10.0,WSW,5.8,-,N/A,,Overcast,250,2013-10-24 04:34:00
12:54 AM,33.8,28.4,81,29.89,10.0,WSW,5.8,-,N/A,,Overcast,250,2013-10-24 04:54:00
1:14 AM,33.8,30.2,87,29.89,10.0,West,5.8,-,N/A,,Overcast,260,2013-10-24 05:14:00
1:34 AM,33.8,30.2,87,29.89,10.0,West,9.2,-,N/A,,Overcast,260,2013-10-24 05:34:00
1:54 AM,33.8,30.2,87,29.89,10.0,West,8.1,-,N/A,,Mostly Cloudy,270,2013-10-24 05:54:00
2:14 AM,33.8,30.2,87,29.89,10.0,WSW,8.1,-,N/A,,Mostly Cloudy,250,2013-10-24 06:14:00
2:34 AM,32.0,30.2,93,29.89,10.0,WSW,6.9,-,N/A,,Overcast,240,2013-10-24 06:34:00
2:54 AM,32.0,30.2,93,29.89,10.0,WSW,6.9,-,N/A,,Overcast,250,2013-10-24 06:54:00
3:14 AM,32.0,30.2,93,29.89,10.0,WSW,8.1,-,N/A,,Mostly Cloudy,240,2013-10-24 07:14:00
3:34 AM,32.0,30.2,93,29.90,10.0,WSW,9.2,-,N/A,,Scattered Clouds,250,2013-10-24 07:34:00
3:54 AM,32.0,30.2,93,29.90,10.0,WSW,8.1,-,N/A,,Clear,250,2013-10-24 07:54:00
4:14 AM,32.0,30.2,93,29.90,10.0,WSW,8.1,-,N/A,,Scattered Clouds,250,2013-10-24 08:14:00
4:34 AM,32.0,30.2,93,29.90,10.0,WSW,8.1,-,N/A,,Mostly Cloudy,250,2013-10-24 08:34:00
4:54 AM,32.0,30.2,93,29.90,10.0,WSW,5.8,-,N/A,,Mostly Cloudy,250,2013-10-24 08:54:00
5:14 AM,32.0,30.2,93,29.91,10.0,WSW,6.9,-,N/A,,Scattered Clouds,250,2013-10-24 09:14:00
5:34 AM,32.0,30.2,93,29.91,10.0,WSW,8.1,-,N/A,,Clear,240,2013-10-24 09:34:00
5:54 AM,32.0,30.2,93,29.92,10.0,WSW,8.1,-,N/A,,Clear,240,2013-10-24 09:54:00
6:14 AM,32.0,30.2,93,29.93,10.0,WSW,6.9,-,N/A,,Clear,250,2013-10-24 10:14:00
6:34 AM,32.0,30.2,93,29.93,10.0,WSW,6.9,-,N/A,,Clear,250,2013-10-24 10:34:00
6:54 AM,32.0,30.2,93,29.93,10.0,WSW,5.8,-,N/A,,Clear,250,2013-10-24 10:54:00
7:14 AM,32.0,32.0,100,29.93,10.0,WSW,6.9,-,N/A,,Clear,240,2013-10-24 11:14:00
7:34 AM,32.0,30.2,93,29.94,10.0,WSW,8.1,-,N/A,,Clear,240,2013-10-24 11:34:00
7:54 AM,32.0,32.0,100,29.94,10.0,WSW,6.9,-,N/A,,Clear,240,2013-10-24 11:54:00
8:14 AM,32.0,32.0,100,29.95,10.0,WSW,8.1,-,N/A,,Clear,250,2013-10-24 12:14:00
8:34 AM,32.0,32.0,100,29.96,10.0,WSW,6.9,-,N/A,,Clear,240,2013-10-24 12:34:00
8:54 AM,32.0,32.0,100,29.96,10.0,WSW,8.1,-,N/A,,Clear,240,2013-10-24 12:54:00
9:14 AM,32.0,32.0,100,29.97,10.0,WSW,9.2,-,N/A,,Clear,250,2013-10-24 13:14:00
9:34 AM,33.8,32.0,93,29.98,10.0,WSW,9.2,-,N/A,,Clear,250,2013-10-24 13:34:00
9:54 AM,35.6,32.0,87,29.98,10.0,West,11.5,-,N/A,,Clear,260,2013-10-24 13:54:00
10:14 AM,37.4,32.0,81,29.98,10.0,West,9.2,-,N/A,,Clear,260,2013-10-24 14:14:00
10:34 AM,37.4,32.0,81,29.99,10.0,West,10.4,-,N/A,,Clear,270,2013-10-24 14:34:00
10:54 AM,41.0,32.0,70,29.99,10.0,West,11.5,-,N/A,,Scattered Clouds,270,2013-10-24 14:54:00
11:14 AM,41.0,32.0,70,29.99,10.0,West,11.5,18.4,N/A,,Mostly Cloudy,270,2013-10-24 15:14:00
11:34 AM,41.0,32.0,70,30.00,10.0,West,12.7,-,N/A,,Mostly Cloudy,280,2013-10-24 15:34:00
11:54 AM,41.0,32.0,70,30.00,10.0,West,13.8,-,N/A,,Mostly Cloudy,270,2013-10-24 15:54:00
12:14 PM,42.8,30.2,61,30.00,10.0,West,9.2,-,N/A,,Overcast,280,2013-10-24 16:14:00
12:34 PM,42.8,32.0,66,30.01,10.0,WNW,11.5,-,N/A,,Mostly Cloudy,290,2013-10-24 16:34:00
12:54 PM,42.8,30.2,61,30.00,10.0,West,9.2,17.3,N/A,,Mostly Cloudy,270,2013-10-24 16:54:00
1:14 PM,44.6,32.0,61,30.00,10.0,West,15.0,19.6,N/A,,Scattered Clouds,270,2013-10-24 17:14:00
1:34 PM,44.6,30.2,57,30.00,10.0,West,12.7,19.6,N/A,,Mostly Cloudy,280,2013-10-24 17:34:00
1:54 PM,44.6,30.2,57,29.99,10.0,WNW,10.4,-,N/A,,Mostly Cloudy,290,2013-10-24 17:54:00
2:14 PM,48.2,30.2,50,29.99,10.0,WNW,10.4,16.1,N/A,,Overcast,300,2013-10-24 18:14:00
2:35 PM,44.6,30.2,57,29.99,10.0,WNW,12.7,-,N/A,,Overcast,300,2013-10-24 18:35:00
2:54 PM,46.4,28.4,50,29.99,10.0,WNW,10.4,-,N/A,,Overcast,290,2013-10-24 18:54:00
3:14 PM,44.6,28.4,53,30.00,10.0,WNW,12.7,-,N/A,,Overcast,290,2013-10-24 19:14:00
3:35 PM,46.4,28.4,50,30.01,10.0,West,8.1,-,N/A,,Overcast,270,2013-10-24 19:35:00
3:54 PM,44.6,30.2,57,30.01,10.0,WNW,13.8,-,N/A,Rain,Light Rain,290,2013-10-24 19:54:00
4:14 PM,44.6,30.2,57,30.02,10.0,NW,17.3,24.2,N/A,,Overcast,320,2013-10-24 20:14:00
4:35 PM,42.8,32.0,66,30.03,10.0,NW,17.3,-,N/A,,Overcast,310,2013-10-24 20:35:00
4:54 PM,42.8,32.0,66,30.03,10.0,WNW,8.1,-,N/A,,Overcast,290,2013-10-24 20:54:00
5:14 PM,42.8,30.2,61,30.03,10.0,WNW,9.2,-,N/A,,Mostly Cloudy,290,2013-10-24 21:14:00
5:34 PM,42.8,32.0,66,30.04,10.0,NW,16.1,25.3,N/A,,Mostly Cloudy,310,2013-10-24 21:34:00
5:54 PM,41.0,32.0,70,30.05,10.0,WNW,15.0,20.7,N/A,,Mostly Cloudy,300,2013-10-24 21:54:00
6:14 PM,41.0,32.0,70,30.06,10.0,West,10.4,20.7,N/A,,Overcast,280,2013-10-24 22:14:00
6:34 PM,41.0,28.4,61,30.07,10.0,WNW,9.2,-,N/A,,Overcast,290,2013-10-24 22:34:00
6:54 PM,41.0,30.2,65,30.08,10.0,WNW,6.9,-,N/A,,Overcast,290,2013-10-24 22:54:00
7:14 PM,39.2,30.2,70,30.08,10.0,West,6.9,-,N/A,,Overcast,280,2013-10-24 23:14:00
7:34 PM,37.4,30.2,75,30.09,10.0,West,5.8,-,N/A,,Overcast,270,2013-10-24 23:34:00
7:54 PM,37.4,30.2,75,30.10,10.0,West,6.9,-,N/A,,Mostly Cloudy,270,2013-10-24 23:54:00
8:14 PM,37.4,30.2,75,30.10,10.0,West,6.9,-,N/A,,Scattered Clouds,270,2013-10-25 00:14:00
8:34 PM,37.4,30.2,75,30.11,10.0,West,9.2,-,N/A,,Mostly Cloudy,270,2013-10-25 00:34:00
8:54 PM,37.4,28.4,70,30.11,10.0,West,9.2,-,N/A,,Scattered Clouds,280,2013-10-25 00:54:00
9:14 PM,35.6,28.4,75,30.11,10.0,West,9.2,-,N/A,,Scattered Clouds,280,2013-10-25 01:14:00
9:34 PM,35.6,28.4,75,30.11,10.0,West,9.2,-,N/A,,Scattered Clouds,280,2013-10-25 01:34:00
9:54 PM,35.6,28.4,75,30.11,10.0,West,10.4,-,N/A,,Scattered Clouds,270,2013-10-25 01:54:00
10:14 PM,35.6,28.4,75,30.12,10.0,West,6.9,-,N/A,,Clear,270,2013-10-25 02:14:00
10:34 PM,35.6,28.4,75,30.13,10.0,West,6.9,-,N/A,,Clear,260,2013-10-25 02:34:00
10:54 PM,35.6,28.4,75,30.13,10.0,West,6.9,-,N/A,,Clear,260,2013-10-25 02:54:00
11:14 PM,33.8,28.4,81,30.13,10.0,West,6.9,-,N/A,,Clear,260,2013-10-25 03:14:00
11:34 PM,33.8,28.4,81,30.14,10.0,West,8.1,-,N/A,,Clear,260,2013-10-25 03:34:00
11:54 PM,33.8,28.4,81,30.14,10.0,West,8.1,-,N/A,,Clear,260,2013-10-25 03:54:00